# Land Stadt Wetter Temperatur Luftdruck Luftfeuchtigkeit Sichtweite Windgeschwindigkeit Windrichtung Ortszeit
1 ad Andorra la Vella Clouds 20 1007 74 10000 5 129 02.08.2018 14:22
2 ae Dubai Clear 38 1001 30 10000 24 340 02.08.2018 14:21
3 af Kabul Clear 27 1014 9 10000 24 10 02.08.2018 14:21
4 ar Buenos Aires Rain 14 1022 77 10000 8 350 02.08.2018 14:22
5 ar Esquel Clouds 2 1024 93 9000 5 300 02.08.2018 14:22
6 ar Ushuaia Clouds 5 999 86 10000 11 140 02.08.2018 14:22
7 at Innsbruck Clouds 16 1011 82 10000 9 60 02.08.2018 14:23
8 at Wien Rain 23 1007 50 10000 28 150 02.08.2018 14:22
9 au Alice Springs Clear 19 1022 25 10000 11 130 02.08.2018 14:21
10 au Darwin Clouds 28 1012 74 10000 22 310 02.08.2018 14:22
11 au Perth Clear 18 1021 59 10000 17 200 02.08.2018 14:21
12 au Sydney Clear 14 1014 53 10000 14 300 02.08.2018 14:22
13 bg Sofia Clouds 24 1015 44 10000 5 0 02.08.2018 14:21
14 bg Warna Clear 24 1014 57 10000 26 110 02.08.2018 14:21
15 bo La Paz Clouds 5 1041 80 6000 8 120 02.08.2018 14:22
16 bo Potisi Clear 9 1022 39 10000 1 330 02.08.2018 14:22
17 br Manaus Clouds 27 1014 83 10000 5 170 02.08.2018 14:21
18 br Rio de Janeiro Clouds 21 1025 68 10000 8 90 02.08.2018 14:22
19 bs Nassau Clouds 27 1015 69 10000 27 86 02.08.2018 14:22
20 ca Montreal Clouds 14 1008 76 10000 17 240 02.08.2018 14:22
21 cd Kisangani Clouds 30 1011 62 10000 8 180 02.08.2018 14:23
22 ch Andermatt Rain 11 1011 82 10000 4 220 02.08.2018 14:23
23 ch Bern Clouds 19 1011 68 10000 9 300 02.08.2018 14:23
24 ck Avarua Rain 25 1013 94 10000 13 30 02.08.2018 14:22
25 cl Santiago Clouds 16 1017 71 10000 4 50 02.08.2018 14:23
26 cn Lhasa Clouds 16 1010 49 10000 9 189 02.08.2018 14:22
27 cn Peking Rain 17 1017 88 10000 7 360 02.08.2018 14:23
28 cn Shanghai Rain 20 1015 94 10000 7 260 02.08.2018 14:21
29 de Berlin Clear 27 1004 39 10000 13 220 02.08.2018 14:21
30 de Braunschweig Clear 24 1005 36 10000 11 270 02.08.2018 14:21
31 de Bremen Clear 23 1004 49 10000 18 220 02.08.2018 14:22
32 de Dresden Rain 21 1006 50 10000 4 0 02.08.2018 14:22
33 de Emden Clear 22 1002 67 10000 11 338 02.08.2018 14:21
34 de Flensburg Clear 21 1002 64 10000 24 225 02.08.2018 14:21
35 de Frankfurt Clear 24 1007 41 10000 15 160 02.08.2018 14:22
36 de Freiburg Clear 22 1007 54 10000 10 169 02.08.2018 14:22
37 de Hamburg Clear 23 1004 49 10000 18 210 02.08.2018 14:21
38 de Hannover Clouds 24 1005 36 10000 15 240 02.08.2018 14:21
39 de Helgoland Clouds 21 1003 64 10000 17 230 02.08.2018 14:22
40 de Hiddensee Clear 23 1007 59 10000 12 275 02.08.2018 14:21
41 de Kassel Clear 23 1006 43 10000 11 140 02.08.2018 14:21
42 de Köln Clouds 24 1006 38 10000 17 250 02.08.2018 14:21
43 de Magdeburg Clouds 26 1005 35 10000 10 252 02.08.2018 14:22
44 de München Clouds 18 954 68 10000 14 251 02.08.2018 14:21
45 de Nürnberg Clouds 22 1008 64 10000 8 130 02.08.2018 14:21
46 de Oberstdorf Clouds 17 929 58 10000 6 337 02.08.2018 14:21
47 de Stuttgart Clouds 22 1009 56 10000 5 260 02.08.2018 14:22
48 de Torfhaus Clear 23 1001 55 10000 14 243 02.08.2018 14:22
49 de Trier Clouds 21 1007 52 10000 15 230 02.08.2018 14:21
50 do Santo Domingo Clouds 27 1013 94 10000 2 17 02.08.2018 14:21
51 ec San Cristobal Clouds 19 1015 85 10000 24 193 02.08.2018 14:22
52 eg Kairo Clouds 31 1013 43 10000 17 330 02.08.2018 14:22
53 es Barcelona Clouds 27 1010 65 10000 24 210 02.08.2018 14:22
54 es Las Palmas de Gran Canaria Clouds 27 1014 51 10000 39 30 02.08.2018 14:21
55 es Madrid Clouds 23 1015 53 10000 26 220 02.08.2018 14:23
56 es Palma de Mallorca Clouds 27 1013 74 10000 30 210 02.08.2018 14:22
57 es Sevilla Clouds 26 1016 50 10000 18 250 02.08.2018 14:22
58 es Tarifa Clouds 26 1015 54 10000 18 280 02.08.2018 14:21
59 et Addis Abeba Clouds 15 1025 82 9000 15 340 02.08.2018 14:23
60 fi Helsinki Clear 17 1005 68 10000 17 170 02.08.2018 14:21
61 fi Rovaniemi Clouds 8 998 81 10000 15 170 02.08.2018 14:21
62 fj Suva Rain 22 1014 100 8000 13 120 02.08.2018 14:21
63 fr Bordeaux Clouds 26 1008 53 10000 21 220 02.08.2018 14:21
64 fr Nizza Clouds 23 1010 73 10000 17 190 02.08.2018 14:22
65 fr Paris Clouds 21 1006 72 10000 17 200 02.08.2018 14:22
66 gb Glasgow Clouds 12 1001 58 10000 8 70 02.08.2018 14:21
67 gb London Clouds 17 1000 72 10000 22 220 02.08.2018 14:22
68 gb Manchester Clouds 12 998 87 10000 17 310 02.08.2018 14:21
69 gl Nuuk Clouds 1 1016 47 10000 28 60 02.08.2018 14:22
70 gr Athen Clouds 28 1014 48 10000 11 200 02.08.2018 14:22
71 id Jakarta Clouds 29 1010 62 6000 5 350 02.08.2018 14:22
72 ie Dublin Clouds 12 1002 66 10000 13 340 02.08.2018 14:21
73 in Jagatsukh Clouds 18 1007 58 10000 2 221 02.08.2018 14:22
74 in Mumbai Drizzle 27 1002 100 2500 18 250 02.08.2018 14:22
75 in Nagpur Clouds 26 1002 88 2500 15 210 02.08.2018 14:21
76 iq Bagdad Clear 40 1006 20 10000 17 350 02.08.2018 14:22
77 is Reykjavik Clouds 5 999 60 10000 30 20 02.08.2018 14:22
78 it Mailand Clouds 23 1009 64 10000 11 200 02.08.2018 14:21
79 it Palermo Clouds 28 994 77 10000 2 350 02.08.2018 14:22
80 it Rom Clouds 21 1013 82 10000 13 200 02.08.2018 14:23
81 jp Nagasaki Clouds 24 1011 78 10000 15 350 02.08.2018 14:21
82 jp Tokio Clouds 21 1013 94 10000 35 360 02.08.2018 14:22
83 ke Nairobi Clouds 27 1019 34 10000 26 150 02.08.2018 14:22
84 kr Seoul Clouds 20 1018 56 10000 16 84 02.08.2018 14:21
85 ma Casablanca Clouds 33 1014 26 10000 18 360 02.08.2018 14:23
86 ma Marrakesch Clouds 35 1014 19 10000 18 50 02.08.2018 14:23
87 mg Antananarivo Clouds 23 1021 40 10000 24 120 02.08.2018 14:21
88 mn Ulaanbaatar Clouds 9 1017 61 10000 7 280 02.08.2018 14:23
89 mn Uliastai Clear 9 1011 53 10000 2 124 02.08.2018 14:23
90 mv Male Clouds 28 1008 83 10000 28 270 02.08.2018 14:23
91 mx Mexiko Stadt Clouds 12 1027 87 8047 9 60 02.08.2018 14:21
92 mx Veracruz Clear 22 1013 100 10000 8 267 02.08.2018 14:21
93 no Hammerfest Clouds 7 991 65 10000 39 170 02.08.2018 14:22
94 no Oslo Rain 15 976 95 10000 6 226 02.08.2018 14:23
95 nz Wellington Rain 14 1005 93 10000 24 340 02.08.2018 14:23
96 pe Cusco Clouds 12 1035 54 10000 4 0 02.08.2018 14:23
97 pg Port Moresby Smoke 26 1011 88 10000 11 150 02.08.2018 14:21
98 ph Manila Rain 26 1010 88 9000 15 340 02.08.2018 14:21
99 pt Lissabon Clouds 23 1015 73 10000 18 220 02.08.2018 14:22
100 qa Doha Clear 38 1002 20 10000 17 60 02.08.2018 14:23
101 ru Amderma Clouds 4 999 87 10000 2 130 02.08.2018 14:23
102 ru Anadyr Clouds 1 1014 74 10000 11 360 02.08.2018 14:23
103 ru Jakutsk Smoke 3 1025 74 3200 11 300 02.08.2018 14:22
104 ru Moskau Clear 21 1016 49 10000 14 240 02.08.2018 14:22
105 ru Surgut Clouds 8 994 70 10000 25 120 02.08.2018 14:23
106 ru Werchojansk Clouds 5 1029 69 10000 2 67 02.08.2018 14:22
107 sa Riad Clear 40 1008 8 10000 15 50 02.08.2018 14:21
108 sb Honiara Clouds 25 1011 94 10000 4 160 02.08.2018 14:22
109 se Stockholm Clear 20 1002 60 10000 13 190 02.08.2018 14:23
110 th Bangkok Rain 28 1008 88 8000 8 230 02.08.2018 14:21
111 tr Alanya Clear 30 1015 37 7000 15 270 02.08.2018 14:22
112 tr Ankara Clouds 27 1016 28 10000 9 0 02.08.2018 14:23
113 tr Istanbul Clouds 24 1016 64 10000 11 200 02.08.2018 14:23
114 ua Kiew Clear 24 1016 19 10000 11 200 02.08.2018 14:21
115 us Chicago Clouds 16 1019 82 10000 8 200 02.08.2018 14:23
116 us Death Valley Clear 12 1014 35 10000 2 193 02.08.2018 14:22
117 us Denver Clouds 13 1022 47 10000 11 180 02.08.2018 14:21
118 us Fairbanks Clouds 5 995 80 10000 5 30 02.08.2018 14:23
119 us Honolulu Clouds 26 1017 65 10000 5 40 02.08.2018 14:22
120 us Las Vegas Clear 22 1017 22 10000 8 210 02.08.2018 14:21
121 us Los Angeles Mist 18 1016 88 4828 2 258 02.08.2018 14:22
122 us Miami Clouds 26 1015 61 10000 8 50 02.08.2018 14:23
123 us New York Clear 16 1013 63 10000 11 250 02.08.2018 14:22
124 us Nome Clear 1 1007 64 10000 18 350 02.08.2018 14:23
125 us Tucson Clear 21 1018 40 10000 9 180 02.08.2018 14:21
126 uy Montevideo Clouds 13 1023 76 10000 15 20 02.08.2018 14:22
127 vn Hanoi Clouds 27 1009 88 10000 11 50 02.08.2018 14:21
128 za Kapstadt Clear 20 1018 63 10000 17 190 02.08.2018 14:22